sat.trackr.live / text

‹ back to catalog

STARLINK-4509

NORAD 53404 · 2022-097S

PAYLOAD ACTIVE UNKNOWN

§ Identity

Operator
Country
US
Launch date
2022-08-10
Launch site
AFETR
Launch vehicle
Mass (kg)
RCS (m²)

Purposes: comms

External: N2YO · Heavens-Above · Gunter

§ Orbital elements

Epoch: 2026-09-19T20:39:16.228800Z

Period
94.01 min
Inclination
53.1596°
Eccentricity
0.0001123
Mean motion
15.31697330 rev/d
Perigee alt
470.0 km
Apogee alt
471.5 km
Semi-major
6,848.9 km
B*
1.2148e-5
RAAN
309.7855°
Arg perigee
84.3492°
Mean anomaly
275.7637°
Rev number
22,813

§ Raw data

STARLINK-45091 53404U 22097S   26262.86060450  .00000012  00000+0  12148-4 0  99952 53404  53.1596 309.7855 0001123  84.3492 275.7637 15.31697330228132

JSON: /api/v1/satellites/53404 · /tle

For live sub-satellite position, see the globe view (requires WebGL).

§ Visibility from observer

Set your observer location to see the next 7 days of passes ≥ 10°. The values pass through the URL so the page stays shareable.

No JS? Fill the form by hand. The geolocation button needs JavaScript.